Location: Maiden
(35.5760°N, 81.2120°W)
Time: 03:20:58
(UTC-04:00)

Vanguard 2 - Pass Details

Date: 07 August 2020
Orbit: 553 x 2937 km, 32.9° (Epoch: 20 September)

Event Time Altitude Azimuth Distance (km) Brightness Sun altitude
Rises 23:20:14 0° 252° (WSW) 6,650 12.5 -29.9°
Reaches altitude 10° 23:24:59 10° 251° (WSW) 5,453 12.0 -30.5°
Maximum altitude 23:40:23 73° 170° (S) 2,054 9.3 -32.2°
Enters shadow 23:43:16 55° 108° (ESE) 2,105 9.3 -32.5°
Drops below altitude 10° 23:49:47 10° 88° (E) 3,491 - -33.2°
Sets 23:52:10 0° 86° (E) 4,209 - -33.4°
